Back to catalog

PEGASUS DEB

AlivePO
NORAD 24091·DEBRIS·🇺🇸 United States

Launched May 19, 1994 from Vandenberg Space Force Base

Loading…

Next Passes (next 24 hours)

TLE

FreshSource: Space-Track

Epoch: Sep 14, 2026, 08:12 UTC

1 24091U 94029EN  26257.34187597  .00002488  00000-0  15604-3 0  9997
2 24091  81.9877 283.2987 0058384 246.5154 125.1221 15.07477460643729

Track PEGASUS DEB in real time with AllMySat

Download on the App Store